Total_Precipitation_Accumulation
0.14 0.12 0.12 0.09 0.10 0.12 0.13 0.14 0.15 0.15 0.13 0.14 0.16 0.19 0.17 0.12 0.10 0.10 0.09 0.11 0.14 0.20 0.23 0.23 0.25 0.28 0.28 0.25 0.21 0.17 0.15 0.15 0.16 0.19 0.27 0.36 0.45 0.47 0.50 0.49 0.62 0.70 0.47
0.13 0.10 0.10 0.07 0.08 0.10 0.12 0.13 0.14 0.13 0.12 0.12 0.14 0.15 0.15 0.14 0.12 0.11 0.11 0.12 0.15 0.19 0.21 0.20 0.20 0.23 0.22 0.16 0.15 0.13 0.11 0.15 0.22 0.34 0.43 0.44 0.54 0.55 0.58 0.55 0.76 1.03 0.57
0.12 0.09 0.09 0.09 0.08 0.09 0.11 0.13 0.13 0.13 0.13 0.13 0.13 0.14 0.14 0.14 0.14 0.14 0.14 0.16 0.22 0.26 0.25 0.23 0.24 0.25 0.22 0.17 0.15 0.13 0.14 0.22 0.37 0.61 0.94 0.92 0.82 0.69 0.63 0.54 0.56 0.59 0.51
0.13 0.09 0.07 0.09 0.08 0.09 0.10 0.12 0.15 0.15 0.14 0.14 0.15 0.15 0.15 0.14 0.14 0.15 0.16 0.19 0.26 0.31 0.31 0.30 0.28 0.25 0.21 0.17 0.16 0.17 0.21 0.32 0.53 0.87 1.42 1.31 1.15 1.04 0.83 0.65 0.54 0.49 0.51
0.16 0.11 0.09 0.09 0.08 0.09 0.09 0.11 0.16 0.18 0.16 0.15 0.15 0.15 0.16 0.16 0.15 0.17 0.21 0.22 0.24 0.29 0.29 0.23 0.20 0.20 0.21 0.18 0.19 0.22 0.30 0.48 0.77 1.15 1.66 1.79 1.78 1.43 0.95 0.71 0.64 0.62 0.62
0.22 0.15 0.10 0.11 0.11 0.12 0.12 0.14 0.18 0.18 0.18 0.18 0.19 0.21 0.21 0.20 0.20 0.22 0.27 0.28 0.28 0.30 0.28 0.25 0.23 0.22 0.23 0.20 0.21 0.29 0.41 0.65 0.87 1.26 1.77 1.97 1.68 1.45 1.09 0.89 0.79 0.73 0.67
0.29 0.21 0.14 0.14 0.16 0.18 0.21 0.23 0.26 0.26 0.25 0.27 0.29 0.30 0.28 0.27 0.27 0.28 0.31 0.34 0.32 0.33 0.32 0.31 0.30 0.28 0.26 0.23 0.24 0.32 0.46 0.69 0.94 1.71 1.88 1.86 1.71 1.45 1.26 1.08 0.91 0.80 0.72
0.35 0.27 0.23 0.20 0.23 0.29 0.31 0.33 0.36 0.34 0.32 0.33 0.36 0.37 0.33 0.29 0.28 0.29 0.31 0.33 0.36 0.41 0.40 0.34 0.29 0.26 0.24 0.24 0.24 0.31 0.46 0.58 0.81 1.38 1.70 1.66 1.40 1.28 1.33 1.13 0.99 0.86 0.76
0.53 0.40 0.34 0.28 0.29 0.37 0.44 0.41 0.40 0.37 0.36 0.36 0.42 0.45 0.41 0.34 0.30 0.31 0.36 0.38 0.39 0.39 0.35 0.31 0.27 0.25 0.24 0.25 0.27 0.31 0.45 0.61 0.83 1.19 1.35 1.46 1.21 1.22 1.40 1.29 1.06 0.90 0.83
0.80 0.65 0.55 0.50 0.47 0.48 0.49 0.48 0.44 0.41 0.42 0.42 0.43 0.44 0.43 0.36 0.34 0.37 0.39 0.42 0.38 0.37 0.37 0.37 0.37 0.36 0.34 0.31 0.32 0.35 0.46 0.55 0.73 1.02 1.61 1.60 1.23 1.44 1.55 1.36 1.19 1.07 0.92
0.88 0.93 0.91 0.74 0.68 0.69 0.62 0.53 0.55 0.49 0.47 0.45 0.43 0.42 0.43 0.49 0.58 0.58 0.50 0.51 0.50 0.51 0.53 0.53 0.51 0.50 0.46 0.43 0.46 0.49 0.49 0.49 0.81 1.35 1.89 1.73 1.45 1.65 1.69 1.49 1.34 1.27 1.15
1.08 1.15 1.19 1.12 0.99 0.93 0.87 0.90 0.89 0.78 0.68 0.58 0.65 0.62 0.62 0.88 0.98 0.85 0.90 0.84 0.79 0.76 0.70 0.69 0.67 0.63 0.59 0.56 0.63 0.62 0.53 0.62 1.08 1.71 1.77 1.37 1.56 1.87 1.95 1.75 1.56 1.51 1.48
1.45 1.23 1.14 1.25 1.26 1.34 1.43 1.27 1.25 1.26 1.18 1.04 1.16 1.09 1.11 1.29 1.20 1.19 1.30 1.17 1.04 0.97 0.94 1.02 0.90 0.73 0.69 0.75 0.83 0.77 0.73 0.81 1.11 1.60 1.72 1.55 1.73 2.04 2.20 2.08 1.83 1.75 1.77
1.78 1.59 1.37 1.30 1.28 1.43 1.61 1.53 1.48 1.46 1.43 1.35 1.39 1.26 1.43 1.61 1.70 1.72 1.83 1.65 1.56 1.49 1.51 1.47 1.37 1.15 1.03 1.00 0.99 1.03 1.06 1.03 1.21 1.51 1.61 1.42 1.56 1.94 2.35 2.38 2.14 2.01 1.97
2.14 1.99 1.80 1.56 1.48 1.57 1.76 1.78 1.74 1.76 1.70 1.81 1.94 1.74 1.74 1.78 1.88 2.18 2.16 2.26 1.92 1.91 1.98 1.91 1.71 1.63 1.48 1.33 1.25 1.25 1.30 1.24 1.31 1.48 1.46 1.45 1.56 1.83 2.24 2.45 2.42 2.42 2.36
2.64 2.31 2.11 2.00 1.81 1.75 1.79 1.90 1.94 1.89 2.01 2.11 2.27 2.15 2.16 2.23 2.37 2.71 2.78 2.67 2.37 2.36 2.57 2.61 2.40 2.19 1.99 1.89 1.67 1.64 1.65 1.65 1.73 1.76 1.68 1.64 1.54 1.59 1.99 2.38 2.65 2.83 2.79
2.82 2.72 2.55 2.44 2.37 2.14 2.06 2.21 2.30 2.17 2.15 2.21 2.43 2.55 2.56 2.62 2.88 2.92 3.13 3.05 2.88 2.83 2.83 2.80 2.98 2.97 2.54 2.25 2.09 2.05 2.08 2.03 2.06 2.08 2.11 2.09 1.85 1.72 1.82 2.09 2.36 2.56 2.67
3.01 2.81 2.77 2.51 2.43 2.56 2.54 2.70 2.72 2.75 2.82 2.71 2.77 3.02 3.08 3.12 3.22 3.23 3.15 3.12 3.07 3.08 3.32 3.38 3.32 3.28 3.09 2.78 2.58 2.34 2.24 2.30 2.13 2.09 2.09 2.17 2.21 1.91 1.72 1.70 1.85 2.03 2.31
2.51 2.61 2.76 2.73 2.63 2.63 2.79 3.11 3.26 3.41 3.59 3.74 3.74 3.93 3.86 3.67 3.61 3.65 3.62 3.67 3.54 3.58 3.56 3.41 3.68 3.60 3.44 3.13 2.66 2.42 2.21 2.23 2.12 1.87 1.90 2.01 2.08 1.96 1.87 1.69 1.73 1.87 2.16
2.39 2.55 2.76 2.95 3.08 3.01 3.06 3.26 3.67 3.88 4.04 4.41 4.44 4.41 4.46 4.47 4.35 4.31 4.20 4.18 4.09 4.00 3.87 3.79 3.79 3.57 3.41 3.16 2.62 2.38 2.15 1.92 1.86 1.84 1.67 1.71 1.78 1.68 1.75 1.76 1.83 1.73 1.90
2.64 2.82 2.82 2.98 3.27 3.50 3.90 3.88 4.06 4.49 4.85 5.00 5.11 5.05 4.93 4.80 4.76 4.60 4.48 4.50 4.32 4.15 3.95 3.82 3.74 3.62 3.31 3.10 2.97 2.60 2.10 1.80 1.67 1.57 1.55 1.55 1.49 1.52 1.71 1.72 1.72 1.68 1.65
2.69 2.94 3.08 3.18 3.57 4.06 4.62 5.15 5.54 5.87 5.88 5.98 5.95 5.80 5.48 5.26 5.09 4.88 4.85 4.72 4.46 4.27 4.04 3.85 3.74 3.63 3.33 3.19 3.16 3.07 2.44 1.96 1.55 1.23 1.29 1.32 1.33 1.40 1.46 1.44 1.43 1.49 1.54
2.72 2.99 3.17 3.45 4.03 4.84 5.35 5.82 6.38 6.69 6.43 6.17 5.89 5.79 5.68 5.59 5.46 5.27 5.16 4.87 4.61 4.32 4.00 3.74 3.58 3.48 3.37 3.27 3.14 3.22 2.78 2.22 1.76 1.40 1.20 1.13 1.21 1.35 1.37 1.37 1.32 1.29 1.37
2.81 2.94 3.13 3.67 4.36 5.01 5.55 6.16 6.75 7.03 7.10 6.91 6.35 5.85 5.42 5.12 4.87 4.74 4.68 4.48 4.23 3.93 3.70 3.44 3.30 3.20 3.29 3.14 3.04 2.89 2.69 2.39 2.12 1.76 1.42 1.23 1.20 1.24 1.30 1.30 1.29 1.31 1.34
2.46 2.92 3.26 3.82 4.48 5.11 5.82 6.54 6.97 7.23 7.26 6.90 6.10 5.31 4.78 4.45 4.15 3.90 3.83 3.73 3.55 3.33 3.12 3.03 3.00 2.90 2.86 2.75 2.63 2.59 2.57 2.51 2.24 1.94 1.62 1.36 1.28 1.25 1.27 1.31 1.41 1.42 1.43
2.34 2.72 3.21 3.54 4.13 4.80 5.38 5.94 6.12 6.29 6.25 5.85 5.41 4.93 4.51 3.98 3.49 3.12 2.96 2.87 2.74 2.61 2.57 2.56 2.57 2.50 2.46 2.44 2.41 2.31 2.24 2.26 2.14 2.02 1.74 1.50 1.46 1.35 1.29 1.27 1.27 1.34 1.41